SCP
6 6 6 5 4 4 4 5 7 9 9 9 8 7 5 4 3 2 2 2 2 2 2 2 2 2 1 1 1 1 1 1 1 0 0 0 0 0 0 0 0 0 0
6 6 5 4 4 4 5 6 7 8 8 8 7 7 6 4 3 2 2 2 2 2 2 2 2 3 3 2 1 1 1 1 1 1 0 0 0 0 0 0 0 0 0
5 5 5 4 4 4 5 6 6 6 7 7 7 6 6 5 3 2 2 2 2 2 2 2 2 3 4 3 2 1 1 1 1 1 0 0 0 0 0 0 0 0 0
4 4 5 6 5 5 5 5 6 6 6 7 6 6 5 5 4 3 2 2 3 3 3 2 2 2 3 3 2 2 2 2 1 1 1 0 0 0 0 0 0 0 0
4 6 9 10 8 5 5 6 6 6 7 7 6 6 6 5 5 4 3 3 3 3 3 2 2 2 2 2 2 2 2 2 2 1 1 1 0 0 0 0 0 0 0
5 7 11 12 9 6 6 7 8 8 8 8 7 6 7 7 7 5 4 3 3 3 3 2 1 1 2 2 2 2 2 2 2 2 1 1 1 0 0 0 0 0 0
6 7 9 9 8 7 7 9 11 12 11 9 7 7 7 8 7 6 4 3 2 2 2 2 1 1 2 2 2 2 2 2 2 2 2 1 1 1 1 1 0 0 0
6 6 6 6 7 9 11 13 14 14 11 9 7 7 7 7 7 5 4 3 2 2 2 1 1 2 2 2 2 2 2 2 2 2 2 1 1 1 1 1 0 0 0
6 5 5 6 10 14 16 16 16 14 11 9 8 7 7 6 5 4 3 2 2 2 1 1 1 2 2 2 2 2 2 2 2 1 1 1 1 1 1 1 1 0 0
6 6 7 9 13 16 17 16 14 12 11 9 8 7 6 6 5 4 3 2 2 2 2 1 1 1 2 2 2 2 2 2 1 1 1 1 1 1 1 1 1 1 0
6 6 8 11 14 15 15 14 13 11 10 9 8 7 5 4 4 3 3 2 2 2 2 1 1 1 2 2 2 2 1 1 1 1 1 1 1 1 1 1 1 1 1
7 8 10 13 15 16 15 14 12 10 9 8 7 6 5 4 3 3 2 2 2 2 2 2 1 1 1 2 2 1 1 1 1 1 1 1 1 1 1 1 1 1 1
9 11 13 16 17 17 15 13 12 10 8 7 6 6 5 4 3 2 2 2 2 2 1 1 1 1 1 1 1 1 1 1 1 1 1 1 1 1 1 1 1 1 1
9 11 15 18 18 16 13 12 11 11 9 7 6 6 5 4 3 2 2 2 1 1 1 1 1 1 1 1 1 1 2 2 2 2 2 2 1 1 1 2 2 2 2
8 10 16 19 17 13 10 9 10 11 10 8 7 6 5 4 3 2 2 2 1 1 1 1 1 1 1 1 1 1 2 2 2 2 2 2 2 1 1 1 2 2 2
8 11 17 19 16 12 9 7 7 9 10 10 8 7 5 4 3 3 2 2 1 1 1 1 1 2 1 1 1 1 1 2 2 2 2 2 1 1 1 1 1 1 1
9 12 16 15 13 10 8 5 6 8 10 10 9 8 7 5 4 4 3 2 2 2 2 2 2 2 2 2 1 1 1 1 1 1 1 1 1 1 0 0 0 0 0
9 11 11 9 7 6 5 4 6 8 9 9 9 9 8 7 6 5 4 4 3 3 3 3 3 3 2 2 2 1 1 1 1 1 1 1 0 0 0 0 0 0 0
8 7 6 5 4 4 4 5 7 8 9 8 8 9 9 8 7 6 6 5 4 4 4 4 3 3 3 2 1 1 1 1 1 1 1 1 0 0 0 0 0 0 0
5 5 5 5 5 4 5 6 8 9 9 8 8 9 9 9 8 7 7 6 6 5 5 4 3 3 2 2 1 0 0 1 1 1 1 1 0 0 0 0 0 0 0
4 4 5 6 6 5 5 6 7 8 8 8 8 8 8 8 8 8 8 7 7 6 4 3 2 2 1 1 1 0 0 0 1 1 1 1 0 0 0 0 0 0 0
4 5 7 7 7 7 6 6 7 8 8 8 8 8 8 8 8 8 7 7 6 5 3 2 1 1 1 0 0 0 0 0 0 1 1 1 0 0 0 0 0 0 0
4 7 9 9 8 7 7 6 7 8 8 7 7 7 7 8 8 7 7 6 5 4 2 1 0 0 0 0 0 0 0 0 0 0 1 0 0 0 0 0 0 0 0
7 9 10 9 8 8 7 7 7 7 7 7 7 7 7 8 8 7 6 6 5 4 3 1 1 0 0 0 0 0 0 0 0 0 0 0 0 0 0 0 0 0 0
10 9 9 8 8 8 7 7 6 6 6 6 7 7 7 7 7 6 6 5 4 4 3 1 1 0 0 0 0 0 0 0 0 0 1 1 1 0 0 0 0 0 0
10 9 8 7 7 8 7 6 5 4 5 5 7 7 7 7 7 6 5 4 4 3 2 1 0 0 0 0 0 0 0 0 0 0 1 1 1 0 0 0 0 0 0
Wind_Speed
6 6 7 8 7 6 6 6 6 5 4 3 3 2 1 1 1 1 2 2 2 2 2 1 1 1 1 1 1 1 1 1 1 2 2 3 2 1 1 1 1 1 1
6 5 5 6 6 7 6 6 6 5 4 3 3 2 2 1 1 1 1 1 2 2 2 2 1 1 1 2 2 2 1 1 2 1 1 2 4 3 2 1 1 1 1
10 9 8 7 7 7 7 7 6 5 4 4 3 2 2 1 1 1 0 0 1 2 2 2 2 1 2 1 1 1 2 1 2 2 2 2 1 2 3 2 1 1 1
9 8 8 7 7 7 6 6 6 6 5 5 4 5 3 2 2 2 1 0 1 1 2 2 2 1 1 1 1 1 1 2 1 1 1 2 2 1 2 3 2 1 0
10 9 8 8 6 6 6 5 5 5 4 5 5 4 3 2 1 1 2 1 0 1 1 2 2 2 2 2 2 2 1 1 1 0 0 1 1 1 2 1 3 3 2
8 8 7 7 6 6 5 5 6 5 4 5 4 5 4 3 3 2 2 1 0 1 1 2 1 1 2 1 1 1 1 1 1 1 1 1 1 1 1 1 1 1 2
8 8 8 7 7 6 6 5 6 5 5 5 4 4 4 4 4 3 3 2 1 1 0 1 1 1 1 1 1 1 0 1 1 1 1 1 1 1 2 2 1 1 2
7 8 7 7 8 8 7 6 6 5 4 4 4 4 4 3 2 3 3 3 2 2 1 1 1 1 1 1 1 1 0 1 1 1 0 0 0 1 1 2 2 0 2
8 8 7 6 7 8 7 7 6 4 4 4 3 3 3 3 3 3 2 2 2 2 2 2 1 1 1 1 1 1 0 1 0 0 0 0 0 0 1 1 2 3 1
7 7 7 6 6 6 6 6 6 6 4 4 3 3 3 3 3 3 2 2 1 1 2 2 1 1 1 1 1 1 0 1 0 0 1 1 1 1 0 1 1 1 3
8 7 6 6 6 6 5 5 5 5 4 3 3 4 3 3 3 3 2 2 2 2 2 2 1 1 1 1 1 1 1 1 0 1 1 1 1 1 1 0 0 0 2
7 7 6 5 5 6 5 5 5 5 4 3 3 4 3 3 2 2 2 2 2 2 2 2 1 1 1 2 2 1 1 1 1 0 1 1 0 1 0 0 0 1 1
6 6 5 5 6 6 5 5 4 4 4 4 4 3 3 3 2 2 2 2 2 2 2 2 2 1 1 1 2 2 1 1 1 1 1 1 0 0 1 0 0 1 0
7 6 5 4 4 5 5 5 4 4 4 4 4 3 3 3 2 2 2 2 2 2 2 2 2 1 1 1 1 2 1 1 1 1 1 1 1 1 1 0 1 0 0
6 6 6 5 4 3 3 4 4 4 4 4 4 3 2 2 2 2 2 2 2 2 2 1 1 1 1 1 1 1 1 1 1 1 1 1 1 1 1 1 1 1 1
6 6 6 6 5 5 4 3 3 3 4 4 4 3 2 2 2 2 2 2 2 2 1 1 1 1 1 1 2 2 1 1 1 1 1 1 1 1 1 2 1 1 2
5 7 7 7 7 5 5 5 4 4 4 4 4 3 3 2 2 3 3 3 2 2 1 1 1 1 1 1 2 2 2 1 1 1 1 1 1 1 1 2 2 2 2
6 6 6 6 6 5 4 4 4 4 4 3 3 3 3 3 3 3 3 2 2 2 2 2 2 1 1 1 1 1 1 1 1 2 2 2 2 2 1 0 1 2 3
5 4 5 6 5 5 5 4 4 4 4 3 4 4 3 3 4 4 3 3 2 2 2 2 2 2 2 1 1 2 1 1 1 2 2 2 2 2 1 0 1 2 3
3 3 4 4 4 4 5 5 4 4 4 4 4 3 3 3 4 4 3 3 2 3 2 2 2 3 3 3 3 3 1 1 1 1 2 2 2 2 2 1 1 2 4
4 4 5 4 4 5 5 4 3 3 3 3 2 2 3 3 3 3 3 3 2 2 2 2 2 3 3 4 4 5 3 3 2 2 2 2 2 2 3 2 3 5 4
4 5 5 4 4 5 6 4 3 3 2 2 2 2 2 2 2 2 2 2 3 3 2 2 2 2 3 3 3 5 5 4 3 3 2 2 3 3 3 2 2 3 2
4 4 4 4 3 4 5 5 4 2 2 2 2 1 1 1 2 3 3 2 2 2 2 2 2 3 2 2 4 5 4 4 3 3 3 3 3 3 2 3 3 2 0
4 3 4 4 2 2 3 4 3 2 2 2 2 2 2 1 1 1 2 2 3 3 3 3 3 3 2 2 2 2 2 2 2 2 3 3 3 2 3 3 2 1 1
3 4 4 3 2 2 2 2 2 3 2 1 1 2 2 2 2 1 2 3 3 5 5 5 4 4 4 5 7 4 3 2 2 1 0 1 1 1 1 1 1 1 1
3 3 3 2 2 3 2 1 2 2 2 1 1 1 2 2 2 1 2 3 3 5 7 6 6 5 6 6 6 6 5 4 4 2 1 1 1 2 2 2 2 2 2
Wind_Direction
182 173 159 153 151 148 145 151 146 153 141 135 141 139 152 145 118 152 148 146 143 128 120 103 86 73 83 75 63 75 55 22 38 58 17 358 9 26 16 33 62 82 101
156 160 154 152 157 156 154 151 155 155 154 154 154 154 151 156 163 143 106 135 137 142 136 127 123 105 98 70 60 78 70 16 30 89 74 6 353 354 1 11 49 74 66
167 168 164 165 157 163 166 162 161 155 157 149 126 110 84 57 59 61 111 118 136 125 123 132 126 100 103 103 86 91 104 74 7 60 112 116 257 318 335 340 358 30 82
170 169 167 170 165 168 164 156 157 158 159 151 146 145 156 171 192 185 170 143 120 124 122 123 116 102 90 82 60 76 91 104 50 350 59 136 159 148 329 333 341 340 10
169 165 168 170 160 151 146 151 148 153 158 158 158 154 156 174 163 140 133 139 87 110 122 113 102 99 95 87 74 70 70 88 111 76 13 40 59 92 137 308 329 347 345
164 163 164 151 145 139 144 149 151 162 167 162 159 159 159 153 140 141 145 142 92 60 82 100 97 111 108 111 110 112 109 110 105 97 96 125 138 183 147 199 277 312 314
156 152 152 153 154 153 154 149 153 161 165 162 166 168 164 152 153 161 163 152 134 111 163 110 109 112 123 126 114 101 80 107 110 141 165 165 201 175 159 154 207 297 304
156 155 157 160 164 160 158 151 157 160 160 164 173 170 158 150 157 167 158 156 161 173 163 127 124 124 111 112 111 98 103 65 66 48 106 85 284 147 151 159 150 71 333
157 155 150 153 157 158 160 158 156 149 155 160 159 159 157 154 154 151 145 155 164 155 145 139 138 138 125 132 130 118 186 97 77 25 32 38 312 51 150 151 155 155 178
151 150 153 157 155 154 158 155 153 153 151 152 149 144 151 157 158 147 151 155 161 154 141 141 151 147 150 157 133 134 147 100 13 50 50 15 321 343 44 144 144 151 168
158 157 158 161 153 144 141 144 146 141 142 146 138 146 156 154 148 153 165 170 169 161 156 161 159 163 161 150 133 160 149 132 18 5 68 358 8 23 4 58 105 163 152
157 153 157 154 147 145 144 141 147 150 155 147 137 146 152 150 152 160 168 159 165 172 161 149 152 171 168 161 162 191 176 168 183 248 73 320 26 38 349 27 307 248 185
140 142 146 150 153 152 150 150 152 154 151 139 137 135 143 147 162 180 171 158 157 163 152 146 159 176 179 175 191 190 183 182 194 191 182 237 153 317 299 296 298 275 287
146 144 144 152 158 156 152 152 153 151 150 144 147 150 162 163 163 158 150 158 159 156 155 159 166 172 182 179 195 185 184 199 200 195 202 218 202 223 247 260 265 249 34
156 160 157 155 151 148 153 153 150 151 154 152 157 173 172 159 150 150 154 153 143 147 157 141 145 155 151 187 183 183 177 179 190 245 243 233 202 201 210 221 228 194 173
172 167 158 154 162 164 167 162 154 160 156 158 163 163 154 151 160 167 161 141 140 151 130 134 137 158 244 196 160 151 143 158 171 221 264 280 317 309 313 299 258 202 190
173 168 166 169 170 168 160 169 171 162 156 160 161 161 164 167 177 164 149 158 164 155 147 165 156 189 265 184 165 161 153 172 195 205 227 270 308 298 293 301 312 307 276
168 172 167 167 169 163 153 157 151 154 157 160 166 175 176 179 174 161 169 178 173 173 186 198 198 207 260 222 168 171 149 162 215 209 203 211 273 289 259 294 315 300 291
171 177 176 168 164 158 152 145 153 155 161 176 190 194 189 185 180 179 188 189 179 195 199 206 204 203 250 245 187 162 148 178 255 245 226 206 228 284 273 168 273 299 299
167 158 159 143 148 155 143 141 158 161 180 192 200 196 188 187 187 191 194 190 186 203 198 210 215 207 226 233 210 184 162 186 248 283 278 257 245 277 278 206 224 275 284
153 150 148 149 160 152 138 145 154 179 197 192 189 192 198 200 198 194 196 189 186 191 198 207 226 223 225 229 213 192 176 193 210 233 257 268 285 292 285 247 224 244 256
138 142 145 156 157 145 139 148 177 199 173 157 167 191 203 205 185 179 198 191 180 187 204 211 237 246 238 226 217 199 194 193 194 217 231 250 270 287 293 273 267 274 274
151 147 150 150 150 151 148 163 197 187 155 153 177 196 219 225 191 184 191 192 186 193 211 212 228 247 249 239 217 200 198 200 205 230 238 259 269 287 288 277 280 277 243
147 145 140 139 153 157 153 162 168 154 155 175 198 201 200 222 215 203 194 191 199 206 212 215 226 236 238 233 221 208 207 216 224 251 270 280 286 281 279 291 291 253 220
144 141 145 155 165 152 144 149 158 154 164 196 215 218 205 202 216 239 237 222 222 212 206 214 210 207 226 229 209 190 195 197 206 192 41 22 348 319 298 294 284 266 261
136 133 140 147 161 164 171 184 179 166 165 193 238 242 235 226 215 229 296 299 263 251 225 217 209 220 223 214 204 200 201 201 176 141 174 232 232 238 247 253 261 253 243